Valparaiso, FL

10:17 AM CST on January 20, 2018 (GMT -0600)
Eglin Air Force Base

Weather History for KVPS - January, 2013

Change the Weather History Date:

Thursday, January 3, 2013

  Actual Average Record
Temperature  
Mean Temperature 44 °F -  
Max Temperature 50 °F 60 °F 75 °F (1952)
Min Temperature 37 °F 40 °F 18 °F (1979)
Degree Days  
Heating Degree Days 21    
Moisture  
Dew Point 42 °F    
Average Humidity 88    
Maximum Humidity 95    
Minimum Humidity 76    
Precipitation  
Precipitation 0.22 in - - ()
Sea Level Pressure  
Sea Level Pressure 30.23 in    
Wind  
Wind Speed 10 mph (North)    
Max Wind Speed 15 mph    
Max Gust Speed 21 mph    
Visibility 9 miles    
Events Rain    
Averages and records for this station are not official NWS values.
T = Trace of Precipitation, MM = Missing Value Source: NWS Daily Summary

Daily Weather History Graph

Daily Weather History Graph

Search for Another Location

Airport or City:

Trip Planner

Search our weather history database for the weather conditions in past years. The results will help you decide how hot, cold, wet, or windy it might be!

Date:

Astronomy

Jan. 03, 2013 Rise Set
Actual Time 6:43 AM CST 4:58 PM CST
Civil Twilight 6:17 AM CST 5:24 PM CST
Nautical Twilight 5:47 AM CST 5:54 PM CST
Astronomical Twilight 5:18 AM CST 6:23 PM CST
Moon 11:03 PM CST (1/3) 10:21 AM CST (1/3)
Length of Visible Light 11h 07m
Length of Day
10h 14m
Waning Gibbous, 65% of the Moon is Illuminated
Jan 3
Waning Gibbous
Jan 4
Last Quarter
Jan 11
New
Jan 18
First Quarter
Jan 26
Full

Hourly Weather History & Observations

Time (CST) Temp. Windchill Dew Point Humidity Pressure Visibility Wind Dir Wind Speed Gust Speed Precip Events Conditions
12:13 AM 50.0 °F - 42.8 °F 76% 30.14 in 10.0 mi North 10.4 mph - N/A Rain Light Rain
12:29 AM 48.2 °F - 42.8 °F 82% 30.15 in 10.0 mi NNW 10.4 mph - N/A   Overcast
12:45 AM 48.2 °F - 42.8 °F 82% 30.15 in 10.0 mi NNW 10.4 mph - N/A Rain Light Rain
12:56 AM 48.4 °F - 43.2 °F 82% 30.17 in 10.0 mi North 11.5 mph - 0.00 in Rain Light Rain
1:55 AM 47.1 °F - 44.2 °F 90% 30.17 in 7.0 mi NNW 11.5 mph - 0.00 in Rain Light Rain
2:55 AM 45.9 °F 41.2 °F 43.7 °F 92% 30.18 in 8.0 mi North 9.2 mph - 0.06 in Rain Rain
3:55 AM 45.5 °F 40.3 °F 44.2 °F 95% 30.18 in 7.0 mi North 10.4 mph - 0.06 in Rain Rain
4:55 AM 45.3 °F 41.6 °F 44.1 °F 95% 30.19 in 7.0 mi North 6.9 mph - 0.04 in Rain Light Rain
5:55 AM 44.8 °F 40.4 °F 43.2 °F 94% 30.20 in 7.0 mi North 8.1 mph - 0.04 in Rain Light Rain
6:55 AM 44.2 °F 38.0 °F 42.6 °F 94% 30.22 in 7.0 mi North 12.7 mph - 0.02 in Rain Light Rain
7:38 AM 44.6 °F 40.2 °F 42.8 °F 93% 30.21 in 7.0 mi NNE 8.1 mph - N/A Rain Light Rain
7:55 AM 44.2 °F 39.2 °F 42.6 °F 94% 30.23 in 7.0 mi North 9.2 mph - N/A Rain Light Rain
8:28 AM 44.6 °F 39.7 °F 42.8 °F 93% 30.22 in 7.0 mi North 9.2 mph - N/A Rain Light Rain
8:55 AM 44.6 °F 38.8 °F 42.8 °F 93% 30.25 in 7.0 mi North 11.5 mph - N/A Rain Light Rain
9:27 AM 44.6 °F 37.8 °F 42.8 °F 93% 30.25 in 6.0 mi NNW 15.0 mph - N/A Rain Light Rain
9:55 AM 44.1 °F 37.1 °F 41.5 °F 91% 30.27 in 7.0 mi North 15.0 mph 19.6 mph N/A Rain Light Rain
10:10 AM 44.6 °F 39.2 °F 41.0 °F 87% 30.25 in 7.0 mi North 10.4 mph 20.7 mph N/A Rain Light Rain
10:55 AM 45.0 °F 40.1 °F 42.8 °F 92% 30.25 in 9.0 mi NNE 9.2 mph - N/A Rain Light Rain
11:05 AM 44.6 °F 38.4 °F 42.8 °F 93% 30.24 in 10.0 mi North 12.7 mph - N/A   Overcast
11:09 AM 44.6 °F 38.4 °F 42.8 °F 93% 30.23 in 9.0 mi North 12.7 mph - N/A   Light Drizzle
11:29 AM 46.4 °F 41.1 °F 42.8 °F 87% 30.22 in 10.0 mi North 11.5 mph 18.4 mph N/A   Overcast
11:55 AM 46.6 °F - 43.3 °F 88% 30.23 in 10.0 mi North 11.5 mph - N/A   Overcast
12:09 PM 46.4 °F 41.1 °F 42.8 °F 87% 30.20 in 10.0 mi North 11.5 mph - N/A   Overcast
12:47 PM 48.2 °F - 42.8 °F 82% 30.20 in 10.0 mi North 11.5 mph - N/A   Overcast
12:55 PM 47.8 °F - 42.4 °F 82% 30.23 in 10.0 mi North 11.5 mph - N/A   Overcast
1:19 PM 48.2 °F - 42.8 °F 82% 30.20 in 10.0 mi North 11.5 mph - N/A   Overcast
1:55 PM 47.8 °F - 41.5 °F 79% 30.20 in 10.0 mi NNE 12.7 mph - N/A   Overcast
2:55 PM 47.8 °F - 41.5 °F 79% 30.21 in 10.0 mi NNE 12.7 mph - N/A   Overcast
3:55 PM 46.9 °F - 41.4 °F 81% 30.24 in 10.0 mi North 10.4 mph - N/A   Overcast
4:55 PM 45.9 °F 41.7 °F 41.0 °F 83% 30.25 in 10.0 mi North 8.1 mph - N/A   Mostly Cloudy
5:55 PM 44.2 °F 39.7 °F 40.3 °F 86% 30.27 in 10.0 mi North 8.1 mph - N/A   Mostly Cloudy
6:55 PM 43.2 °F 39.0 °F 39.4 °F 86% 30.30 in 10.0 mi North 6.9 mph - N/A   Mostly Cloudy
7:55 PM 41.4 °F 38.4 °F 38.7 °F 90% 30.31 in 10.0 mi North 4.6 mph - N/A   Partly Cloudy
8:55 PM 39.9 °F 36.7 °F 37.6 °F 91% 30.33 in 10.0 mi NNW 4.6 mph - N/A   Partly Cloudy
9:55 PM 38.8 °F 32.6 °F 35.6 °F 88% 30.32 in 10.0 mi North 9.2 mph - N/A   Partly Cloudy
10:55 PM 39.2 °F 34.2 °F 33.4 °F 80% 30.33 in 10.0 mi North 6.9 mph - N/A   Partly Cloudy
11:55 PM 37.8 °F 31.8 °F 32.9 °F 83% 30.32 in 10.0 mi North 8.1 mph - N/A   Scattered Clouds